User: anonymous   Login
Location: Unspecified
(0.0000°N, 0.0000°E)
Time: 15:48:29
(UTC+00:00)
Language:

XW-2B - Orbit

View from above orbital plane
View from above orbital plane
View from above satellite
View from above satellite

Ground track
Ground track

The orbit data is extracted from the following two-line orbital elements,

1 40911U 15049N   18198.13596034  .00000526  00000-0  31370-4 0  9993
2 40911  97.4607 201.3216 0012643 286.7567  73.2278 15.15334444155938
Epoch (UTC): 17 July 2018 03:15:46
Eccentricity: 0.0012643
inclination: 97.4607°
perigee height: 511 km
apogee height: 528 km
right ascension of ascending node: 201.3216°
argument of perigee: 286.7567°
revolutions per day: 15.15334444
mean anomaly at epoch: 73.2278°
orbit number at epoch: 15593

The dashed part of the orbit path shows where the satellite is in the earth's shadow,  

DLR